Date String (YYYY-MM-DD hh:mm:ss) UTC,Instrument flags,Ambient pressure (hPa),Sample flow (lpm),Bypass flow (lpm),Sample temperature (°C),Ambient temperature (°C),ASC tube jacket temperature (°C),LED temperature (°C),Box temperature (°C),Sample RH (%),Span deviation,Mass concentration (μg/m³),Mass concentration (μg/m³),Mass concentration (μg/m³)
DateTimeUTC,F1_M11,P_M11,Q1_M11,Q2_M11,T1_M11,T2_M11,T3_M11,T4_M11,T5_M11,U1_M11,ZSPAN_M11,X0_M11,X2_M11,X1_M11
2022-10-15 06:00:00,,0824.9,5.01,0.00,29.8,28.1,00.0,38.7,31.5,06.9,0000.0,0006.10,0003.00,0002.33
2022-10-15 06:01:00,,0824.9,5.00,0.00,29.8,28.1,00.0,38.7,31.5,06.9,0000.0,0006.68,0002.98,0002.36
2022-10-15 06:02:00,,0824.8,5.00,0.00,29.8,28.1,00.0,38.7,31.4,06.9,0000.0,0006.91,0003.01,0002.37
2022-10-15 06:03:00,,0824.8,5.01,0.00,29.8,28.1,00.0,38.7,31.5,06.9,0000.0,0007.18,0003.04,0002.37
2022-10-15 06:04:00,,0824.8,4.99,0.00,29.7,28.1,00.0,38.6,31.5,07.0,0000.0,0007.16,0003.04,0002.38
2022-10-15 06:05:00,,0824.8,5.01,0.00,29.7,28.1,00.0,38.6,31.4,07.0,0000.0,0007.03,0002.99,0002.39
2022-10-15 06:06:00,,0824.8,4.99,0.00,29.7,28.1,00.0,38.6,31.4,06.9,0000.0,0007.23,0003.01,0002.39
2022-10-15 06:07:00,,0824.7,5.01,0.00,29.7,28.0,00.0,38.6,31.4,06.9,0000.0,0007.43,0003.04,0002.39
2022-10-15 06:08:00,,0824.7,4.99,0.00,29.7,28.0,00.0,38.6,31.4,06.9,0000.0,0007.48,0003.07,0002.41
2022-10-15 06:09:00,,0824.7,5.01,0.00,29.7,28.1,00.0,38.6,31.4,06.9,0000.0,0007.59,0003.08,0002.42
2022-10-15 06:10:00,,0824.7,4.99,0.00,29.7,28.0,00.0,38.6,31.4,06.9,0000.0,0008.18,0003.08,0002.42
2022-10-15 06:11:00,,0824.7,5.02,0.00,29.7,28.0,00.0,38.6,31.4,06.9,0000.0,0007.93,0003.07,0002.41
2022-10-15 06:12:00,,0824.7,4.99,0.00,29.7,28.1,00.0,38.6,31.4,06.9,0000.0,0007.09,0003.07,0002.39
2022-10-15 06:13:00,,0824.6,5.01,0.00,29.7,28.1,00.0,38.6,31.4,06.9,0000.0,0007.29,0003.05,0002.38
2022-10-15 06:14:00,,0824.6,4.98,0.00,29.7,28.1,00.0,38.6,31.4,06.9,0000.0,0007.08,0003.01,0002.37
2022-10-15 06:15:00,,0824.7,5.02,0.00,29.7,28.1,00.0,38.6,31.4,06.9,0000.0,0007.79,0003.07,0002.36
2022-10-15 06:16:00,,0824.7,4.98,0.00,29.7,28.1,00.0,38.6,31.4,06.9,0000.0,0008.57,0003.08,0002.36
2022-10-15 06:17:00,,0824.6,5.01,0.00,29.7,28.1,00.0,38.6,31.4,06.9,0000.0,0008.41,0003.07,0002.37
2022-10-15 06:18:00,,0824.6,4.99,0.00,29.7,28.1,00.0,38.6,31.4,07.0,0000.0,0008.33,0003.09,0002.37
2022-10-15 06:19:00,,0824.7,5.00,0.00,29.7,28.0,00.0,38.6,31.4,07.0,0000.0,0008.44,0003.07,0002.35
2022-10-15 06:20:00,,0824.7,5.00,0.00,29.7,28.0,00.0,38.6,31.4,07.0,0000.0,0008.36,0003.03,0002.34
2022-10-15 06:21:00,,0824.6,5.01,0.00,29.7,28.0,00.0,38.6,31.4,07.0,0000.0,0008.97,0003.02,0002.33
2022-10-15 06:22:00,,0824.7,5.00,0.00,29.7,28.0,00.0,38.6,31.3,07.0,0000.0,0009.60,0003.01,0002.33
2022-10-15 06:23:00,,0824.7,5.00,0.00,29.6,28.0,00.0,38.6,31.3,07.0,0000.0,0009.92,0003.06,0002.32
2022-10-15 06:24:00,,0824.7,5.00,0.00,29.6,28.0,00.0,38.6,31.4,07.0,0000.0,0010.19,0003.10,0002.32
2022-10-15 06:25:00,,0824.6,5.01,0.00,29.6,28.0,00.0,38.5,31.4,06.9,0000.0,0010.03,0003.12,0002.33
2022-10-15 06:26:00,,0824.6,4.98,0.00,29.6,27.9,00.0,38.5,31.3,07.0,0000.0,0009.66,0003.10,0002.33
2022-10-15 06:27:00,,0824.7,5.01,0.00,29.6,27.9,00.0,38.5,31.3,07.0,0000.0,0008.61,0003.03,0002.33
2022-10-15 06:28:00,,0824.6,4.99,0.00,29.6,27.9,00.0,38.5,31.3,07.0,0000.0,0008.58,0003.01,0002.31
2022-10-15 06:29:00,,0824.7,5.00,0.00,29.6,27.9,00.0,38.5,31.3,07.0,0000.0,0008.64,0003.06,0002.31
2022-10-15 06:30:00,,0824.6,5.01,0.00,29.6,27.9,00.0,38.5,31.2,07.0,0000.0,0008.60,0003.09,0002.32
2022-10-15 06:31:00,,0824.6,4.98,0.00,29.6,27.9,00.0,38.5,31.3,07.0,0000.0,0008.43,0003.06,0002.31
2022-10-15 06:32:00,,0824.8,5.01,0.00,29.6,27.9,00.0,38.5,31.3,07.0,0000.0,0007.32,0003.07,0002.32
2022-10-15 06:33:00,,0824.7,5.00,0.00,29.6,27.9,00.0,38.5,31.3,07.0,0000.0,0006.52,0003.09,0002.33
2022-10-15 06:34:00,,0824.7,5.00,0.00,29.6,27.9,00.0,38.5,31.3,07.0,0000.0,0006.58,0003.06,0002.34
2022-10-15 06:35:00,,0824.7,5.01,0.00,29.5,27.9,00.0,38.5,31.3,07.0,0000.0,0005.57,0003.06,0002.34
2022-10-15 06:36:00,,0824.6,4.99,0.00,29.5,27.8,00.0,38.5,31.2,07.0,0000.0,0005.98,0003.09,0002.34
2022-10-15 06:37:00,,0824.7,5.01,0.00,29.5,27.9,00.0,38.4,31.3,07.0,0000.0,0006.64,0003.12,0002.36
2022-10-15 06:38:00,,0824.7,4.99,0.00,29.5,27.9,00.0,38.4,31.3,07.0,0000.0,0006.76,0003.13,0002.36
2022-10-15 06:39:00,,0824.7,5.02,0.00,29.5,27.8,00.0,38.4,31.2,07.0,0000.0,0006.84,0003.15,0002.37
2022-10-15 06:40:00,,0824.7,4.99,0.00,29.5,27.8,00.0,38.4,31.2,07.1,0000.0,0007.08,0003.11,0002.37
2022-10-15 06:41:00,,0824.6,4.99,0.00,29.5,27.9,00.0,38.4,31.2,07.1,0000.0,0007.64,0003.12,0002.37
2022-10-15 06:42:00,,0824.6,5.01,0.00,29.5,27.8,00.0,38.4,31.2,07.1,0000.0,0008.09,0003.14,0002.35
2022-10-15 06:43:00,,0824.6,4.98,0.00,29.5,27.8,00.0,38.4,31.1,07.1,0000.0,0008.71,0003.12,0002.34
2022-10-15 06:44:00,,0824.6,5.01,0.00,29.5,27.8,00.0,38.4,31.2,07.1,0000.0,0008.94,0003.09,0002.33
2022-10-15 06:45:00,,0824.7,4.99,0.00,29.5,27.8,00.0,38.4,31.2,07.1,0000.0,0008.71,0003.08,0002.33
2022-10-15 06:46:00,,0824.7,5.01,0.00,29.5,27.8,00.0,38.4,31.2,07.1,0000.0,0009.55,0003.08,0002.33
2022-10-15 06:47:00,,0824.7,4.99,0.00,29.4,27.8,00.0,38.4,31.2,07.2,0000.0,0009.68,0003.05,0002.31
2022-10-15 06:48:00,,0824.7,5.01,0.00,29.4,27.8,00.0,38.4,31.2,07.2,0000.0,0009.35,0002.94,0002.29
2022-10-15 06:49:00,,0824.7,5.00,0.00,29.4,27.8,00.0,38.4,31.2,07.3,0000.0,0009.35,0002.91,0002.28
2022-10-15 06:50:00,,0824.8,4.99,0.00,29.4,27.8,00.0,38.4,31.1,07.2,0000.0,0009.45,0002.90,0002.28
2022-10-15 06:51:00,,0824.6,5.01,0.00,29.4,27.7,00.0,38.4,31.1,07.1,0000.0,0009.37,0002.92,0002.27
2022-10-15 06:52:00,,0824.8,5.00,0.00,29.4,27.7,00.0,38.3,31.1,07.1,0000.0,0008.78,0002.88,0002.26
2022-10-15 06:53:00,,0824.7,4.99,0.00,29.4,27.7,00.0,38.3,31.1,07.1,0000.0,0008.93,0002.88,0002.27
2022-10-15 06:54:00,,0824.6,5.02,0.00,29.4,27.7,00.0,38.3,31.1,07.1,0000.0,0008.92,0002.86,0002.27
2022-10-15 06:55:00,,0824.6,4.99,0.00,29.4,27.7,00.0,38.3,31.1,07.1,0000.0,0009.04,0002.91,0002.29
2022-10-15 06:56:00,,0824.7,5.01,0.00,29.4,27.7,00.0,38.3,31.1,07.2,0000.0,0009.25,0002.96,0002.28
2022-10-15 06:57:00,,0824.7,4.99,0.00,29.4,27.7,00.0,38.3,31.1,07.2,0000.0,0008.51,0002.93,0002.26
2022-10-15 06:58:00,,0824.7,5.01,0.00,29.4,27.7,00.0,38.3,31.1,07.2,0000.0,0008.49,0002.95,0002.26
2022-10-15 06:59:00,,0824.7,4.99,0.00,29.4,27.6,00.0,38.3,31.1,07.1,0000.0,0008.60,0003.03,0002.26
